| time (UTC) | temp F | wind direction | speed knots | gust knots | rain 1hr in | rain 24hr in | rain mn in | humidity % | barometer mb |
| 20260502223626 | 71 | 312 | 4.3 | 11.3 | 0.00 | 0.01 | 0.00 | 68 | 1016.0 |
| 20260502222126 | 71 | 18 | 1.7 | 12.2 | 0.00 | 0.01 | 0.00 | 68 | 1016.0 |
| 20260502220626 | 72 | 359 | 3.5 | 10.4 | 0.00 | 0.01 | 0.00 | 69 | 1016.0 |
| 20260502215126 | 72 | 6 | 2.6 | 15.6 | 0.00 | 0.01 | 0.00 | 68 | 1016.0 |
| 20260502213626 | 70 | 37 | 3.5 | 9.6 | 0.00 | 0.01 | 0.00 | 71 | 1016.0 |
| 20260502212125 | 72 | 326 | 5.2 | 10.4 | 0.00 | 0.01 | 0.00 | 72 | 1016.0 |
| 20260502210625 | 71 | 288 | 4.3 | 15.6 | 0.00 | 0.01 | 0.00 | 71 | 1016.3 |
| 20260502205125 | 71 | 32 | 3.5 | 10.4 | 0.00 | 0.01 | 0.00 | 76 | 1016.0 |
| 20260502203625 | 71 | 17 | 3.5 | 11.3 | 0.00 | 0.01 | 0.00 | 77 | 1016.3 |
| 20260502202125 | 70 | 356 | 4.3 | 25.2 | 0.00 | 0.01 | 0.00 | 79 | 1016.3 |
| 20260502200624 | 70 | 39 | 4.3 | 13.9 | 0.00 | 0.01 | 0.00 | 80 | 1016.6 |
| 20260502195124 | 70 | 326 | 3.5 | 10.4 | 0.00 | 0.01 | 0.00 | 84 | 1017.0 |
| 20260502193624 | 69 | 93 | 3.5 | 9.6 | 0.00 | 0.01 | 0.00 | 87 | 1017.0 |
| 20260502192124 | 70 | 359 | 4.3 | 13.0 | 0.00 | 0.01 | 0.00 | 88 | 1017.0 |
| 20260502190623 | 70 | 332 | 4.3 | 16.5 | 0.00 | 0.01 | 0.00 | 94 | 1017.0 |
| 20260502185123 | 68 | 301 | 4.3 | 13.9 | 0.00 | 0.01 | 0.00 | 99 | 1017.0 |
| 20260502183623 | 69 | 293 | 4.3 | 14.8 | 0.00 | 0.01 | 0.00 | 100 | 1017.0 |
| 20260502182123 | 68 | 93 | 4.3 | 14.8 | 0.00 | 0.01 | 0.00 | 100 | 1017.0 |
| 20260502180623 | 65 | 270 | 3.5 | 10.4 | 0.00 | 0.01 | 0.00 | 100 | 1017.0 |
| 20260502163622 | 62 | 195 | 1.7 | 13.0 | 0.00 | 0.01 | 0.00 | 100 | 1018.0 |
| 20260502162121 | 62 | 301 | 4.3 | 9.6 | 0.00 | 0.01 | 0.00 | 100 | 1018.0 |
| 20260502160621 | 61 | 60 | 3.5 | 11.3 | 0.00 | 0.01 | 0.00 | 100 | 1018.0 |
| 20260502152121 | 61 | 13 | 1.7 | 8.7 | 0.00 | 0.01 | 0.00 | 100 | 1018.0 |
| 20260502150621 | 60 | 17 | 3.5 | 7.8 | 0.00 | 0.01 | 0.00 | 100 | 1017.7 |
| 20260502130619 | 57 | 283 | 1.7 | 4.3 | 0.00 | 0.01 | 0.00 | 100 | 1016.6 |
| 20260502123619 | 57 | 332 | 2.6 | 5.2 | 0.00 | 0.01 | 0.00 | 100 | 1016.3 |
| 20260502122119 | 57 | 309 | 0.0 | 2.6 | 0.00 | 0.01 | 0.00 | 100 | 1016.3 |
| 20260502120618 | 56 | 20 | 0.0 | 0.0 | 0.00 | 0.01 | 0.00 | 100 | 1015.6 |
| 20260502115118 | 56 | 20 | 0.0 | 0.0 | 0.00 | 0.01 | 0.00 | 100 | 1015.3 |
| 20260502113618 | 56 | 20 | 0.0 | 0.0 | 0.00 | 0.01 | 0.00 | 100 | 1015.3 |
| 20260502112118 | 57 | 41 | 0.0 | 2.6 | 0.00 | 0.01 | 0.00 | 100 | 1015.3 |
| 20260502110618 | 57 | 75 | 0.0 | 5.2 | 0.00 | 0.01 | 0.00 | 100 | 1014.9 |
| 20260502105117 | 56 | 353 | 0.0 | 5.2 | 0.00 | 0.01 | 0.00 | 100 | 1014.9 |
| 20260502103617 | 57 | 281 | 0.9 | 7.0 | 0.00 | 0.01 | 0.00 | 100 | 1014.9 |
| 20260502102117 | 57 | 28 | 0.9 | 7.0 | 0.00 | 0.01 | 0.00 | 100 | 1014.6 |
| 20260502100617 | 57 | 46 | 2.6 | 7.8 | 0.00 | 0.01 | 0.00 | 100 | 1014.6 |
| 20260502090616 | 57 | 21 | 1.7 | 7.8 | 0.00 | 0.01 | 0.00 | 100 | 1013.9 |
| 20260502070615 | 56 | 349 | 1.7 | 7.8 | 0.00 | 0.01 | 0.00 | 100 | 1013.9 |
| 20260502065114 | 56 | 250 | 0.0 | 6.1 | 0.00 | 0.01 | 0.00 | 100 | 1013.9 |
| 20260502063614 | 56 | 359 | 2.6 | 7.8 | 0.00 | 0.01 | 0.00 | 100 | 1013.9 |
| 20260502062114 | 56 | 52 | 0.9 | 6.1 | 0.00 | 0.01 | 0.00 | 100 | 1013.9 |
| 20260502060614 | 56 | 25 | 0.9 | 9.6 | 0.00 | 0.01 | 0.01 | 100 | 1014.6 |
| 20260502055113 | 57 | 25 | 1.7 | 4.3 | 0.00 | 0.01 | 0.01 | 100 | 1014.3 |
| 20260502053613 | 56 | 23 | 0.9 | 7.8 | 0.00 | 0.01 | 0.01 | 100 | 1014.3 |
| 20260502052113 | 57 | 347 | 3.5 | 7.8 | 0.00 | 0.01 | 0.01 | 100 | 1013.9 |
| 20260502050613 | 58 | 13 | 1.7 | 7.0 | 0.00 | 0.01 | 0.01 | 100 | 1014.3 |
| 20260502045113 | 58 | 6 | 0.9 | 7.8 | 0.00 | 0.01 | 0.01 | 100 | 1013.9 |
| 20260502043612 | 57 | 0 | 1.7 | 8.7 | 0.00 | 0.01 | 0.01 | 100 | 1013.2 |
| 20260502042112 | 58 | 6 | 1.7 | 7.0 | 0.00 | 0.01 | 0.01 | 100 | 1013.2 |
| 20260502040612 | 59 | 63 | 1.7 | 7.0 | 0.01 | 0.01 | 0.01 | 100 | 1013.6 |
| 20260502035112 | 58 | 34 | 4.3 | 8.7 | 0.01 | 0.01 | 0.01 | 100 | 1013.2 |
| 20260502033611 | 58 | 359 | 1.7 | 10.4 | 0.01 | 0.01 | 0.01 | 100 | 1013.2 |
| 20260502032111 | 58 | 25 | 3.5 | 9.6 | 0.01 | 0.01 | 0.01 | 100 | 1013.2 |
| 20260502030611 | 58 | 35 | 0.9 | 13.0 | 0.00 | 0.01 | 0.00 | 100 | 1013.2 |
| 20260502025111 | 58 | 63 | 0.0 | 8.7 | 0.00 | 0.01 | 0.00 | 100 | 1012.9 |
| 20260502023611 | 58 | 55 | 2.6 | 7.0 | 0.00 | 0.01 | 0.00 | 100 | 1013.2 |
| 20260502022111 | 59 | 25 | 0.0 | 9.6 | 0.00 | 0.01 | 0.00 | 100 | 1012.9 |
| 20260502020610 | 59 | 333 | 0.9 | 11.3 | 0.00 | 0.01 | 0.00 | 100 | 1012.6 |
| 20260502015110 | 58 | 79 | 0.0 | 10.4 | 0.00 | 0.01 | 0.00 | 100 | 1012.2 |
| 20260502013610 | 58 | 333 | 3.5 | 8.7 | 0.00 | 0.01 | 0.00 | 100 | 1011.9 |
| 20260502012110 | 58 | 32 | 3.5 | 14.8 | 0.00 | 0.01 | 0.00 | 100 | 1011.6 |
| 20260502010610 | 58 | 100 | 2.6 | 11.3 | 0.00 | 0.01 | 0.00 | 100 | 1010.9 |
| 20260502005110 | 58 | 42 | 2.6 | 13.0 | 0.00 | 0.01 | 0.00 | 100 | 1010.2 |
| 20260502003609 | 58 | 51 | 0.9 | 5.2 | 0.00 | 0.01 | 0.00 | 100 | 1011.2 |
| 20260502002109 | 60 | 21 | 1.7 | 8.7 | 0.00 | 0.01 | 0.00 | 100 | 1011.2 |
| 20260502000609 | 59 | 10 | 1.7 | 7.8 | 0.00 | 0.01 | 0.00 | 100 | 1011.9 |
| 20260501235109 | 58 | 181 | 0.0 | 8.7 | 0.00 | 0.01 | 0.00 | 100 | 1012.9 |
| 20260501233609 | 58 | 48 | 2.6 | 8.7 | 0.00 | 0.01 | 0.00 | 100 | 1011.9 |
| 20260501232109 | 58 | 41 | 2.6 | 7.8 | 0.00 | 0.01 | 0.00 | 100 | 1011.9 |
| 20260501230608 | 59 | 314 | 0.9 | 13.9 | 0.00 | 0.01 | 0.00 | 100 | 1011.9 |
| 20260501225108 | 58 | 75 | 4.3 | 13.0 | 0.00 | 0.01 | 0.00 | 100 | 1011.9 |